HB9BTL-13 Weather Reports


time (UTC)temp
C
wind
direction
speed
KPH
gust
KPH
rain 1hr
cm
rain 24hr
cm
rain mn
cm
humidity
%
barometer
mb
20260507180958 15 0.0 0.0 0.00 0.00 0.00 76 1014.5
20260507175453 16 0.0 0.0 0.00 0.00 0.00 68 1014.4
20260507173947 16 0.0 0.0 0.00 0.00 0.00 66 1014.2
20260507172442 17 0.0 0.0 0.00 0.00 0.00 62 1014.2
20260507170936 17 0.0 0.0 0.00 0.00 0.00 63 1014.2
20260507165431 17 0.0 0.0 0.00 0.00 0.00 61 1014.0
20260507163925 17 0.0 0.0 0.00 0.00 0.00 60 1014.0
20260507162420 17 0.0 0.0 0.00 0.00 0.00 57 1014.0
20260507160914 18 0.0 0.0 0.00 0.00 0.00 56 1014.0
20260507155409 18 0.0 0.0 0.00 0.00 0.00 57 1014.0
20260507153904 18 0.0 0.0 0.00 0.00 0.00 60 1013.9
20260507152358 17 0.0 0.0 0.00 0.00 0.00 60 1014.0
20260507150853 17 0.0 0.0 0.00 0.00 0.00 63 1014.0
20260507145347 17 0.0 0.0 0.00 0.00 0.00 65 1014.0
20260507143842 17 0.0 0.0 0.00 0.00 0.00 64 1014.0
20260507142337 17 0.0 0.0 0.00 0.00 0.00 65 1014.1
20260507140831 17 0.0 0.0 0.00 0.00 0.00 65 1014.2
20260507135328 17 0.0 0.0 0.00 0.00 0.00 67 1014.3
20260507133820 16 0.0 0.0 0.00 0.00 0.00 66 1014.4
20260507132316 16 0.0 0.0 0.00 0.00 0.00 74 1014.4
20260507130810 17 0.0 0.0 0.00 0.00 0.00 75 1014.5
20260507125307 16 0.0 0.0 0.00 0.00 0.00 74 1014.5
20260507123759 15 0.0 0.0 0.00 0.00 0.00 82 1014.6
20260507122254 16 0.0 0.0 0.00 0.00 0.00 82 1014.6
20260507120748 15 0.0 0.0 0.00 0.00 0.00 90 1014.6
20260507115243 15 0.0 0.0 0.00 0.00 0.00 96 1014.6
20260507113738 15 0.0 0.0 0.00 0.00 0.00 96 1014.8
20260507112232 14 0.0 0.0 0.00 0.00 0.00 10 1015.0
20260507110727 14 0.0 0.0 0.00 0.00 0.00 10 1014.9
20260507105221 15 0.0 0.0 0.00 0.00 0.00 90 1015.0
20260507103716 15 0.0 0.0 0.00 0.00 0.00 89 1014.9
20260507102210 15 0.0 0.0 0.00 0.00 0.00 90 1015.0
20260507100706 15 0.0 0.0 0.00 0.00 0.00 92 1014.9
20260507095200 14 0.0 0.0 0.00 0.00 0.00 90 1015.0
20260507093655 14 0.0 0.0 0.00 0.00 0.00 93 1015.0
20260507092149 13 0.0 0.0 0.00 0.00 0.00 95 1015.0
20260507090644 13 0.0 0.0 0.00 0.00 0.00 99 1015.0
20260507085138 13 0.0 0.0 0.00 0.00 0.00 99 1014.9
20260507083633 13 0.0 0.0 0.00 0.00 0.00 10 1014.9
20260507082128 13 0.0 0.0 0.00 0.00 0.00 10 1014.8
20260507080622 12 0.0 0.0 0.00 0.00 0.00 10 1014.9
20260507075117 12 0.0 0.0 0.00 0.00 0.00 10 1014.8
20260507073611 12 0.0 0.0 0.00 0.00 0.00 10 1014.7
20260507072107 12 0.0 0.0 0.00 0.00 0.00 10 1014.7
20260507070600 11 0.0 0.0 0.00 0.00 0.00 10 1014.7
20260507065055 11 0.0 0.0 0.00 0.00 0.00 10 1014.6
20260507063550 11 0.0 0.0 0.00 0.00 0.00 10 1014.5
20260507062044 11 0.0 0.0 0.00 0.00 0.00 10 1014.3
20260507060539 11 0.0 0.0 0.00 0.00 0.00 10 1014.3
20260507055034 11 0.0 0.0 0.00 0.00 0.00 10 1014.2
20260507053529 11 0.0 0.0 0.00 0.00 0.00 10 1014.1
20260507052023 11 0.0 0.0 0.00 0.00 0.00 10 1013.9
20260507050518 11 0.0 0.0 0.00 0.00 0.00 10 1013.8
20260507045012 11 0.0 0.0 0.00 0.00 0.00 10 1013.5
20260507043507 11 0.0 0.0 0.00 0.00 0.00 10 1013.4
20260507042001 11 0.0 0.0 0.00 0.00 0.00 10 1013.3
20260507040456 11 0.0 0.0 0.00 0.00 0.00 10 1013.2
20260507034950 10 0.0 0.0 0.00 0.00 0.00 10 1013.2
20260507033445 11 0.0 0.0 0.00 0.00 0.00 10 1013.1
20260507031940 11 0.0 0.0 0.00 0.00 0.00 10 1013.0
20260507030434 11 0.0 0.0 0.00 0.00 0.00 10 1012.9
20260507024929 10 0.0 0.0 0.00 0.00 0.00 10 1012.9
20260507023423 10 0.0 0.0 0.00 0.00 0.00 10 1012.9
20260507021919 10 0.0 0.0 0.00 0.00 0.00 10 1012.8
20260507020413 10 0.0 0.0 0.00 0.00 0.00 10 1012.8
20260507014908 10 0.0 0.0 0.00 0.00 0.00 10 1012.6
20260507013402 10 0.0 0.0 0.00 0.00 0.00 10 1012.4
20260507011857 10 0.0 0.0 0.00 0.00 0.00 10 1012.4
20260507010352 10 0.0 0.0 0.00 0.00 0.00 10 1012.3
20260507004846 10 0.0 0.0 0.00 0.00 0.00 10 1012.3
20260507003341 10 0.0 0.0 0.00 0.00 0.00 10 1012.2
20260507001835 10 0.0 0.0 0.00 0.00 0.00 10 1012.3
20260507000330 10 0.0 0.0 0.00 0.00 0.00 10 1012.3
20260506234824 10 0.0 0.0 0.00 0.00 0.00 10 1012.3
20260506231813 10 0.0 0.0 0.00 0.00 0.00 10 1012.1
20260506230308 10 0.0 0.0 0.00 0.00 0.00 10 1012.0
20260506224803 10 0.0 0.0 0.00 0.00 0.00 10 1012.0
20260506223257 10 0.0 0.0 0.00 0.00 0.00 10 1012.0
20260506221753 10 0.0 0.0 0.00 0.00 0.00 10 1012.0
20260506220247 10 0.0 0.0 0.00 0.00 0.00 10 1011.9
20260506214742 10 0.0 0.0 0.00 0.00 0.00 10 1011.9
20260506213236 10 0.0 0.0 0.00 0.00 0.00 10 1011.9
20260506211731 11 0.0 0.0 0.00 0.00 0.00 10 1012.0
20260506210226 11 0.0 0.0 0.00 0.00 0.00 10 1011.6
20260506204720 11 0.0 0.0 0.00 0.00 0.00 10 1011.8
20260506203215 11 0.0 0.0 0.00 0.00 0.00 10 1011.6
20260506201709 11 0.0 0.0 0.00 0.00 0.00 10 1011.4
20260506200204 11 0.0 0.0 0.00 0.00 0.00 10 1011.2
20260506194659 11 0.0 0.0 0.00 0.00 0.00 10 1011.0
20260506193153 11 0.0 0.0 0.00 0.00 0.00 10 1010.8
20260506191647 11 0.0 0.0 0.00 0.00 0.00 10 1010.6
20260506190142 12 0.0 0.0 0.00 0.00 0.00 10 1010.6
20260506184637 12 0.0 0.0 0.00 0.00 0.00 10 1010.6
20260506183131 12 0.0 0.0 0.00 0.00 0.00 10 1010.4